| time (UTC) | temp C | wind direction | speed KPH | gust KPH | rain 1hr cm | rain 24hr cm | rain mn cm | humidity % | barometer mb |
| 20260507225441 | 23 | 246 | 0.0 | 0.0 | 0.00 | 0.00 | 0.00 | 90 | 1006.8 |
| 20260507224937 | 23 | 166 | 0.0 | 0.0 | 0.00 | 0.00 | 0.00 | 90 | 1006.8 |
| 20260507224433 | 23 | 147 | 0.0 | 0.0 | 0.00 | 0.00 | 0.00 | 90 | 1006.6 |
| 20260507223930 | 23 | 216 | 0.0 | 0.0 | 0.00 | 0.00 | 0.00 | 90 | 1006.7 |
| 20260507223426 | 23 | 67 | 0.0 | 0.0 | 0.00 | 0.00 | 0.00 | 90 | 1006.7 |
| 20260507222922 | 23 | 48 | 0.0 | 1.6 | 0.00 | 0.00 | 0.00 | 90 | 1006.8 |
| 20260507222419 | 23 | 152 | 0.0 | 3.2 | 0.00 | 0.00 | 0.00 | 89 | 1006.9 |
| 20260507221916 | 23 | 157 | 0.0 | 0.0 | 0.00 | 0.00 | 0.00 | 89 | 1006.8 |
| 20260507221412 | 23 | 98 | 4.8 | 8.0 | 0.00 | 0.00 | 0.00 | 89 | 1006.9 |
| 20260507220908 | 23 | 40 | 0.0 | 0.0 | 0.00 | 0.00 | 0.00 | 89 | 1007.0 |
| 20260507220406 | 23 | 223 | 0.0 | 0.0 | 0.00 | 0.00 | 0.00 | 89 | 1007.0 |
| 20260507215902 | 23 | 175 | 0.0 | 0.0 | 0.00 | 0.00 | 0.00 | 89 | 1006.8 |
| 20260507215359 | 23 | 148 | 0.0 | 0.0 | 0.00 | 0.00 | 0.00 | 89 | 1006.8 |
| 20260507214856 | 23 | 136 | 3.2 | 4.8 | 0.00 | 0.00 | 0.00 | 89 | 1006.6 |
| 20260507214354 | 23 | 101 | 0.0 | 0.0 | 0.00 | 0.00 | 0.00 | 89 | 1006.9 |
| 20260507213849 | 23 | 35 | 3.2 | 4.8 | 0.00 | 0.00 | 0.00 | 89 | 1006.7 |
| 20260507213346 | 23 | 74 | 0.0 | 0.0 | 0.00 | 0.00 | 0.00 | 89 | 1006.8 |
| 20260507212843 | 23 | 109 | 0.0 | 1.6 | 0.00 | 0.00 | 0.00 | 89 | 1006.9 |
| 20260507212339 | 23 | 79 | 0.0 | 0.0 | 0.00 | 0.00 | 0.00 | 90 | 1006.8 |
| 20260507211836 | 23 | 56 | 0.0 | 0.0 | 0.00 | 0.00 | 0.00 | 90 | 1006.8 |
| 20260507211332 | 23 | 125 | 0.0 | 3.2 | 0.00 | 0.00 | 0.00 | 90 | 1006.8 |
| 20260507210829 | 23 | 100 | 1.6 | 1.6 | 0.00 | 0.00 | 0.00 | 90 | 1007.0 |
| 20260507210326 | 23 | 136 | 0.0 | 1.6 | 0.00 | 0.00 | 0.00 | 90 | 1006.9 |
| 20260507205823 | 23 | 316 | 0.0 | 0.0 | 0.00 | 0.00 | 0.00 | 89 | 1007.0 |
| 20260507205320 | 23 | 281 | 1.6 | 3.2 | 0.00 | 0.00 | 0.00 | 89 | 1007.2 |
| 20260507204815 | 23 | 111 | 0.0 | 3.2 | 0.00 | 0.00 | 0.00 | 89 | 1007.1 |
| 20260507204313 | 23 | 167 | 0.0 | 0.0 | 0.00 | 0.00 | 0.00 | 89 | 1007.0 |
| 20260507203811 | 23 | 178 | 0.0 | 1.6 | 0.00 | 0.00 | 0.00 | 88 | 1007.1 |
| 20260507203309 | 23 | 148 | 0.0 | 1.6 | 0.00 | 0.00 | 0.00 | 88 | 1007.5 |
| 20260507202805 | 23 | 120 | 3.2 | 4.8 | 0.00 | 0.00 | 0.00 | 88 | 1006.9 |
| 20260507202301 | 23 | 131 | 0.0 | 0.0 | 0.00 | 0.00 | 0.00 | 88 | 1007.1 |
| 20260507201756 | 24 | 142 | 0.0 | 0.0 | 0.00 | 0.00 | 0.00 | 87 | 1007.1 |
| 20260507201252 | 24 | 166 | 3.2 | 4.8 | 0.00 | 0.00 | 0.00 | 87 | 1007.1 |
| 20260507200749 | 24 | 132 | 0.0 | 0.0 | 0.00 | 0.00 | 0.00 | 87 | 1007.2 |
| 20260507200245 | 24 | 90 | 0.0 | 1.6 | 0.00 | 0.00 | 0.00 | 87 | 1007.5 |
| 20260507195741 | 24 | 82 | 0.0 | 0.0 | 0.00 | 0.00 | 0.00 | 86 | 1007.5 |
| 20260507195239 | 24 | 125 | 4.8 | 8.0 | 0.00 | 0.00 | 0.00 | 86 | 1007.5 |
| 20260507194736 | 24 | 245 | 0.0 | 0.0 | 0.00 | 0.00 | 0.00 | 86 | 1007.5 |
| 20260507194232 | 24 | 60 | 1.6 | 4.8 | 0.00 | 0.00 | 0.00 | 86 | 1007.7 |
| 20260507193729 | 24 | 149 | 0.0 | 0.0 | 0.00 | 0.00 | 0.00 | 86 | 1007.9 |
| 20260507193225 | 24 | 109 | 0.0 | 0.0 | 0.00 | 0.00 | 0.00 | 86 | 1007.6 |
| 20260507192722 | 24 | 143 | 0.0 | 0.0 | 0.00 | 0.00 | 0.00 | 85 | 1007.5 |
| 20260507192219 | 24 | 193 | 0.0 | 0.0 | 0.00 | 0.00 | 0.00 | 85 | 1007.8 |
| 20260507191714 | 25 | 166 | 0.0 | 0.0 | 0.00 | 0.00 | 0.00 | 84 | 1007.8 |
| 20260507191212 | 25 | 127 | 3.2 | 4.8 | 0.00 | 0.00 | 0.00 | 83 | 1007.7 |
| 20260507190708 | 25 | 127 | 0.0 | 1.6 | 0.00 | 0.00 | 0.00 | 83 | 1007.7 |
| 20260507190207 | 25 | 170 | 0.0 | 1.6 | 0.00 | 0.00 | 0.00 | 82 | 1008.0 |
| 20260507185705 | 25 | 125 | 0.0 | 1.6 | 0.00 | 0.00 | 0.00 | 81 | 1007.9 |
| 20260507185202 | 25 | 162 | 1.6 | 4.8 | 0.00 | 0.00 | 0.00 | 80 | 1008.2 |
| 20260507184659 | 25 | 123 | 0.0 | 1.6 | 0.00 | 0.00 | 0.00 | 78 | 1008.1 |
| 20260507184157 | 25 | 144 | 0.0 | 1.6 | 0.00 | 0.00 | 0.00 | 77 | 1008.3 |
| 20260507183653 | 25 | 42 | 0.0 | 0.0 | 0.00 | 0.00 | 0.00 | 77 | 1008.3 |
| 20260507183150 | 25 | 177 | 3.2 | 8.0 | 0.00 | 0.00 | 0.00 | 76 | 1008.4 |
| 20260507182647 | 25 | 168 | 0.0 | 0.0 | 0.00 | 0.00 | 0.00 | 76 | 1008.3 |
| 20260507182143 | 26 | 115 | 3.2 | 4.8 | 0.00 | 0.00 | 0.00 | 75 | 1008.4 |
| 20260507181639 | 26 | 69 | 1.6 | 4.8 | 0.00 | 0.00 | 0.00 | 75 | 1008.4 |
| 20260507181136 | 26 | 130 | 4.8 | 4.8 | 0.00 | 0.00 | 0.00 | 75 | 1008.0 |
| 20260507180632 | 26 | 173 | 3.2 | 4.8 | 0.00 | 0.00 | 0.00 | 74 | 1008.0 |
| 20260507180130 | 26 | 236 | 6.4 | 9.7 | 0.00 | 0.00 | 0.00 | 74 | 1008.4 |
| 20260507175625 | 26 | 170 | 1.6 | 4.8 | 0.00 | 0.00 | 0.00 | 74 | 1008.0 |
| 20260507175123 | 26 | 80 | 0.0 | 0.0 | 0.00 | 0.00 | 0.00 | 73 | 1007.9 |
| 20260507174620 | 26 | 168 | 4.8 | 8.0 | 0.00 | 0.00 | 0.00 | 73 | 1007.9 |
| 20260507174118 | 26 | 190 | 4.8 | 9.7 | 0.00 | 0.00 | 0.00 | 73 | 1007.9 |
| 20260507173615 | 26 | 147 | 0.0 | 0.0 | 0.00 | 0.00 | 0.00 | 73 | 1007.8 |
| 20260507173112 | 26 | 113 | 0.0 | 1.6 | 0.00 | 0.00 | 0.00 | 73 | 1007.6 |
| 20260507172607 | 26 | 93 | 0.0 | 0.0 | 0.00 | 0.00 | 0.00 | 72 | 1007.6 |
| 20260507172105 | 26 | 180 | 1.6 | 3.2 | 0.00 | 0.00 | 0.00 | 72 | 1007.5 |
| 20260507171600 | 26 | 122 | 0.0 | 0.0 | 0.00 | 0.00 | 0.00 | 72 | 1007.6 |
| 20260507171057 | 26 | 122 | 3.2 | 4.8 | 0.00 | 0.00 | 0.00 | 72 | 1007.6 |
| 20260507170554 | 26 | 141 | 0.0 | 0.0 | 0.00 | 0.00 | 0.00 | 72 | 1007.7 |
| 20260507170051 | 26 | 94 | 4.8 | 8.0 | 0.00 | 0.00 | 0.00 | 72 | 1007.9 |
| 20260507165547 | 26 | 154 | 3.2 | 4.8 | 0.00 | 0.00 | 0.00 | 72 | 1007.6 |
| 20260507165044 | 26 | 108 | 0.0 | 0.0 | 0.00 | 0.00 | 0.00 | 72 | 1007.9 |
| 20260507164539 | 26 | 113 | 3.2 | 4.8 | 0.00 | 0.00 | 0.00 | 71 | 1008.0 |
| 20260507164037 | 26 | 150 | 0.0 | 1.6 | 0.00 | 0.00 | 0.00 | 71 | 1007.9 |
| 20260507163534 | 27 | 198 | 0.0 | 0.0 | 0.00 | 0.00 | 0.00 | 71 | 1007.8 |
| 20260507163032 | 27 | 175 | 0.0 | 1.6 | 0.00 | 0.00 | 0.00 | 70 | 1008.0 |
| 20260507162526 | 27 | 66 | 0.0 | 0.0 | 0.00 | 0.00 | 0.00 | 70 | 1008.2 |
| 20260507162023 | 27 | 38 | 1.6 | 1.6 | 0.00 | 0.00 | 0.00 | 70 | 1008.2 |
| 20260507161520 | 27 | 130 | 1.6 | 3.2 | 0.00 | 0.00 | 0.00 | 69 | 1008.1 |
| 20260507161017 | 27 | 184 | 3.2 | 3.2 | 0.00 | 0.00 | 0.00 | 69 | 1007.9 |
| 20260507160513 | 27 | 151 | 1.6 | 3.2 | 0.00 | 0.00 | 0.00 | 69 | 1007.8 |
| 20260507160009 | 27 | 121 | 0.0 | 1.6 | 0.00 | 0.00 | 0.00 | 68 | 1007.9 |
| 20260507155504 | 27 | 148 | 1.6 | 3.2 | 0.00 | 0.00 | 0.00 | 68 | 1007.8 |
| 20260507155002 | 27 | 141 | 0.0 | 1.6 | 0.00 | 0.00 | 0.00 | 67 | 1007.8 |
| 20260507154458 | 27 | 133 | 3.2 | 9.7 | 0.00 | 0.00 | 0.00 | 67 | 1007.5 |
| 20260507153955 | 27 | 180 | 3.2 | 4.8 | 0.00 | 0.00 | 0.00 | 67 | 1007.7 |
| 20260507153452 | 27 | 201 | 0.0 | 1.6 | 0.00 | 0.00 | 0.00 | 67 | 1007.6 |
| 20260507152949 | 27 | 103 | 0.0 | 0.0 | 0.00 | 0.00 | 0.00 | 66 | 1007.6 |
| 20260507152444 | 27 | 118 | 4.8 | 8.0 | 0.00 | 0.00 | 0.00 | 65 | 1007.2 |
| 20260507151941 | 27 | 153 | 0.0 | 0.0 | 0.00 | 0.00 | 0.00 | 64 | 1007.1 |
| 20260507151437 | 27 | 87 | 0.0 | 0.0 | 0.00 | 0.00 | 0.00 | 64 | 1006.9 |
| 20260507150934 | 27 | 229 | 0.0 | 0.0 | 0.00 | 0.00 | 0.00 | 63 | 1006.9 |
| 20260507150431 | 28 | 116 | 0.0 | 0.0 | 0.00 | 0.00 | 0.00 | 62 | 1006.7 |
| 20260507145928 | 28 | 108 | 0.0 | 0.0 | 0.00 | 0.00 | 0.00 | 62 | 1006.4 |
| 20260507145423 | 28 | 146 | 1.6 | 4.8 | 0.00 | 0.00 | 0.00 | 60 | 1006.5 |
| 20260507144921 | 28 | 119 | 0.0 | 0.0 | 0.00 | 0.00 | 0.00 | 59 | 1006.5 |
| 20260507144418 | 28 | 107 | 0.0 | 0.0 | 0.00 | 0.00 | 0.00 | 59 | 1006.3 |
| 20260507143914 | 28 | 221 | 0.0 | 0.0 | 0.00 | 0.00 | 0.00 | 59 | 1005.9 |
| 20260507143412 | 28 | 120 | 3.2 | 3.2 | 0.00 | 0.00 | 0.00 | 58 | 1006.1 |
| 20260507142908 | 28 | 238 | 0.0 | 0.0 | 0.00 | 0.00 | 0.00 | 57 | 1006.0 |
| 20260507142404 | 28 | 116 | 0.0 | 0.0 | 0.00 | 0.00 | 0.00 | 57 | 1005.9 |
| 20260507141901 | 28 | 358 | 0.0 | 0.0 | 0.00 | 0.00 | 0.00 | 57 | 1005.9 |
| 20260507141357 | 28 | 112 | 0.0 | 0.0 | 0.00 | 0.00 | 0.00 | 56 | 1005.8 |
| 20260507140854 | 28 | 166 | 1.6 | 3.2 | 0.00 | 0.00 | 0.00 | 56 | 1005.8 |
| 20260507140351 | 28 | 1 | 0.0 | 1.6 | 0.00 | 0.00 | 0.00 | 57 | 1005.7 |
| 20260507135849 | 28 | 78 | 0.0 | 0.0 | 0.00 | 0.00 | 0.00 | 56 | 1005.3 |
| 20260507135345 | 28 | 338 | 0.0 | 0.0 | 0.00 | 0.00 | 0.00 | 56 | 1005.3 |
| 20260507134843 | 28 | 58 | 0.0 | 0.0 | 0.00 | 0.00 | 0.00 | 56 | 1005.2 |
| 20260507134339 | 28 | 215 | 0.0 | 0.0 | 0.00 | 0.00 | 0.00 | 56 | 1005.1 |
| 20260507133835 | 28 | 285 | 0.0 | 0.0 | 0.00 | 0.00 | 0.00 | 56 | 1005.2 |
| 20260507133330 | 28 | 36 | 0.0 | 0.0 | 0.00 | 0.00 | 0.00 | 56 | 1005.1 |
| 20260507132830 | 28 | 323 | 0.0 | 0.0 | 0.00 | 0.00 | 0.00 | 57 | 1004.8 |
| 20260507132325 | 29 | 80 | 0.0 | 0.0 | 0.00 | 0.00 | 0.00 | 56 | 1004.8 |
| 20260507131823 | 29 | 44 | 0.0 | 0.0 | 0.00 | 0.00 | 0.00 | 56 | 1005.1 |
| 20260507131319 | 29 | 144 | 0.0 | 0.0 | 0.00 | 0.00 | 0.00 | 56 | 1004.6 |
| 20260507130816 | 29 | 138 | 0.0 | 1.6 | 0.00 | 0.00 | 0.00 | 56 | 1004.7 |
| 20260507130313 | 29 | 157 | 0.0 | 0.0 | 0.00 | 0.00 | 0.00 | 55 | 1004.6 |
| 20260507125812 | 29 | 95 | 0.0 | 0.0 | 0.00 | 0.00 | 0.00 | 55 | 1004.5 |
| 20260507125309 | 30 | 359 | 0.0 | 0.0 | 0.00 | 0.00 | 0.00 | 55 | 1004.7 |
| 20260507124806 | 30 | 21 | 0.0 | 0.0 | 0.00 | 0.00 | 0.00 | 54 | 1004.6 |
| 20260507124302 | 30 | 68 | 0.0 | 0.0 | 0.00 | 0.00 | 0.00 | 54 | 1004.7 |
| 20260507123801 | 30 | 222 | 0.0 | 1.6 | 0.00 | 0.00 | 0.00 | 54 | 1004.5 |
| 20260507123258 | 30 | 195 | 0.0 | 0.0 | 0.00 | 0.00 | 0.00 | 53 | 1004.5 |
| 20260507122754 | 30 | 348 | 0.0 | 0.0 | 0.00 | 0.00 | 0.00 | 53 | 1004.4 |
| 20260507122249 | 30 | 8 | 0.0 | 0.0 | 0.00 | 0.00 | 0.00 | 53 | 1004.4 |
| 20260507121746 | 30 | 294 | 0.0 | 0.0 | 0.00 | 0.00 | 0.00 | 53 | 1004.4 |
| 20260507121241 | 30 | 115 | 0.0 | 1.6 | 0.00 | 0.00 | 0.00 | 52 | 1004.3 |
| 20260507120738 | 30 | 155 | 1.6 | 3.2 | 0.00 | 0.00 | 0.00 | 52 | 1004.4 |
| 20260507120235 | 30 | 96 | 0.0 | 0.0 | 0.00 | 0.00 | 0.00 | 52 | 1004.3 |
| 20260507115731 | 31 | 107 | 0.0 | 1.6 | 0.00 | 0.00 | 0.00 | 51 | 1004.3 |
| 20260507115227 | 31 | 315 | 0.0 | 0.0 | 0.00 | 0.00 | 0.00 | 52 | 1004.5 |
| 20260507114722 | 30 | 326 | 0.0 | 0.0 | 0.00 | 0.00 | 0.00 | 51 | 1004.5 |
| 20260507114220 | 30 | 175 | 3.2 | 4.8 | 0.00 | 0.00 | 0.00 | 51 | 1004.5 |
| 20260507113718 | 30 | 338 | 3.2 | 8.0 | 0.00 | 0.00 | 0.00 | 51 | 1004.4 |
| 20260507113214 | 30 | 33 | 0.0 | 0.0 | 0.00 | 0.00 | 0.00 | 52 | 1004.7 |
| 20260507112712 | 31 | 350 | 0.0 | 1.6 | 0.00 | 0.00 | 0.00 | 51 | 1004.5 |
| 20260507112209 | 30 | 43 | 0.0 | 0.0 | 0.00 | 0.00 | 0.00 | 51 | 1004.7 |
| 20260507111706 | 31 | 65 | 1.6 | 4.8 | 0.00 | 0.00 | 0.00 | 50 | 1004.5 |
| 20260507111203 | 31 | 311 | 0.0 | 0.0 | 0.00 | 0.00 | 0.00 | 52 | 1004.7 |
| 20260507110658 | 31 | 153 | 4.8 | 11.3 | 0.00 | 0.00 | 0.00 | 51 | 1004.4 |
| 20260507110156 | 31 | 161 | 6.4 | 8.0 | 0.00 | 0.00 | 0.00 | 50 | 1004.7 |
| 20260507105653 | 31 | 228 | 0.0 | 0.0 | 0.00 | 0.00 | 0.00 | 50 | 1004.4 |
| 20260507105148 | 31 | 318 | 0.0 | 0.0 | 0.00 | 0.00 | 0.00 | 51 | 1004.6 |
| 20260507104646 | 31 | 140 | 1.6 | 3.2 | 0.00 | 0.00 | 0.00 | 51 | 1004.7 |
| 20260507104142 | 31 | 202 | 0.0 | 1.6 | 0.00 | 0.00 | 0.00 | 50 | 1004.7 |
| 20260507103638 | 31 | 134 | 1.6 | 4.8 | 0.00 | 0.00 | 0.00 | 50 | 1004.7 |
| 20260507103135 | 31 | 185 | 3.2 | 4.8 | 0.00 | 0.00 | 0.00 | 50 | 1004.5 |
| 20260507102632 | 31 | 217 | 0.0 | 0.0 | 0.00 | 0.00 | 0.00 | 49 | 1004.8 |
| 20260507102128 | 32 | 49 | 3.2 | 8.0 | 0.00 | 0.00 | 0.00 | 49 | 1004.9 |
| 20260507101624 | 32 | 63 | 1.6 | 1.6 | 0.00 | 0.00 | 0.00 | 47 | 1005.1 |
| 20260507101120 | 32 | 259 | 0.0 | 0.0 | 0.00 | 0.00 | 0.00 | 48 | 1004.9 |
| 20260507100618 | 31 | 313 | 0.0 | 0.0 | 0.00 | 0.00 | 0.00 | 51 | 1004.7 |
| 20260507100115 | 31 | 11 | 0.0 | 0.0 | 0.00 | 0.00 | 0.00 | 48 | 1005.1 |
| 20260507095613 | 31 | 33 | 0.0 | 0.0 | 0.00 | 0.00 | 0.00 | 50 | 1005.1 |
| 20260507095109 | 31 | 166 | 3.2 | 3.2 | 0.00 | 0.00 | 0.00 | 49 | 1005.2 |
| 20260507094606 | 31 | 166 | 0.0 | 1.6 | 0.00 | 0.00 | 0.00 | 49 | 1005.3 |
| 20260507094103 | 31 | 20 | 0.0 | 1.6 | 0.00 | 0.00 | 0.00 | 50 | 1005.4 |
| 20260507093600 | 31 | 88 | 0.0 | 1.6 | 0.00 | 0.00 | 0.00 | 51 | 1005.4 |
| 20260507093059 | 31 | 140 | 4.8 | 8.0 | 0.00 | 0.00 | 0.00 | 50 | 1005.5 |
| 20260507092555 | 31 | 164 | 4.8 | 8.0 | 0.00 | 0.00 | 0.00 | 50 | 1005.4 |
| 20260507092051 | 31 | 318 | 0.0 | 0.0 | 0.00 | 0.00 | 0.00 | 50 | 1005.4 |
| 20260507091548 | 30 | 303 | 0.0 | 0.0 | 0.00 | 0.00 | 0.00 | 53 | 1005.5 |
| 20260507091045 | 31 | 162 | 0.0 | 0.0 | 0.00 | 0.00 | 0.00 | 52 | 1005.5 |
| 20260507090540 | 31 | 166 | 1.6 | 3.2 | 0.00 | 0.00 | 0.00 | 51 | 1005.6 |
| 20260507090037 | 31 | 188 | 0.0 | 0.0 | 0.00 | 0.00 | 0.00 | 52 | 1005.4 |
| 20260507085535 | 31 | 316 | 3.2 | 4.8 | 0.00 | 0.00 | 0.00 | 54 | 1005.6 |
| 20260507085031 | 31 | 318 | 0.0 | 0.0 | 0.00 | 0.00 | 0.00 | 53 | 1005.7 |
| 20260507084528 | 31 | 250 | 0.0 | 0.0 | 0.00 | 0.00 | 0.00 | 53 | 1005.7 |
| 20260507084025 | 31 | 119 | 3.2 | 3.2 | 0.00 | 0.00 | 0.00 | 54 | 1005.8 |
| 20260507083521 | 31 | 159 | 4.8 | 8.0 | 0.00 | 0.00 | 0.00 | 53 | 1005.8 |
| 20260507083018 | 30 | 117 | 0.0 | 1.6 | 0.00 | 0.00 | 0.00 | 54 | 1005.8 |
| 20260507082514 | 31 | 108 | 6.4 | 9.7 | 0.00 | 0.00 | 0.00 | 53 | 1005.9 |
| 20260507082010 | 31 | 218 | 0.0 | 0.0 | 0.00 | 0.00 | 0.00 | 54 | 1006.0 |
| 20260507081507 | 31 | 305 | 0.0 | 0.0 | 0.00 | 0.00 | 0.00 | 55 | 1006.3 |
| 20260507081004 | 30 | 6 | 1.6 | 1.6 | 0.00 | 0.00 | 0.00 | 56 | 1006.4 |
| 20260507080459 | 30 | 300 | 0.0 | 0.0 | 0.00 | 0.00 | 0.00 | 57 | 1006.3 |
| 20260507075955 | 30 | 95 | 0.0 | 0.0 | 0.00 | 0.00 | 0.00 | 58 | 1006.5 |
| 20260507075452 | 30 | 4 | 1.6 | 3.2 | 0.00 | 0.00 | 0.00 | 58 | 1006.5 |
| 20260507074948 | 31 | 317 | 0.0 | 0.0 | 0.00 | 0.00 | 0.00 | 57 | 1006.6 |
| 20260507074445 | 30 | 290 | 0.0 | 0.0 | 0.00 | 0.00 | 0.00 | 59 | 1006.8 |
| 20260507073943 | 30 | 328 | 0.0 | 0.0 | 0.00 | 0.00 | 0.00 | 60 | 1006.7 |
| 20260507073439 | 30 | 61 | 0.0 | 0.0 | 0.00 | 0.00 | 0.00 | 58 | 1007.0 |
| 20260507072936 | 30 | 356 | 0.0 | 0.0 | 0.00 | 0.00 | 0.00 | 60 | 1007.1 |
| 20260507072434 | 30 | 20 | 3.2 | 4.8 | 0.00 | 0.00 | 0.00 | 60 | 1006.8 |
| 20260507071931 | 29 | 162 | 3.2 | 4.8 | 0.00 | 0.00 | 0.00 | 63 | 1006.9 |
| 20260507071428 | 30 | 148 | 3.2 | 8.0 | 0.00 | 0.00 | 0.00 | 60 | 1007.2 |
| 20260507070924 | 30 | 63 | 0.0 | 0.0 | 0.00 | 0.00 | 0.00 | 63 | 1007.3 |
| 20260507070422 | 30 | 304 | 0.0 | 0.0 | 0.00 | 0.00 | 0.00 | 64 | 1007.3 |
| 20260507065918 | 29 | 154 | 0.0 | 1.6 | 0.00 | 0.00 | 0.00 | 64 | 1007.6 |
| 20260507065415 | 29 | 17 | 0.0 | 0.0 | 0.00 | 0.00 | 0.00 | 63 | 1007.6 |
| 20260507064912 | 30 | 236 | 0.0 | 0.0 | 0.00 | 0.00 | 0.00 | 64 | 1007.6 |
| 20260507064410 | 29 | 308 | 1.6 | 3.2 | 0.00 | 0.00 | 0.00 | 66 | 1007.6 |
| 20260507063908 | 28 | 141 | 3.2 | 4.8 | 0.00 | 0.00 | 0.00 | 64 | 1007.7 |
| 20260507063405 | 28 | 313 | 1.6 | 3.2 | 0.00 | 0.00 | 0.00 | 67 | 1008.0 |
| 20260507062902 | 28 | 32 | 1.6 | 3.2 | 0.00 | 0.00 | 0.00 | 67 | 1008.0 |
| 20260507062359 | 29 | 21 | 0.0 | 1.6 | 0.00 | 0.00 | 0.00 | 65 | 1007.9 |
| 20260507061856 | 29 | 85 | 0.0 | 0.0 | 0.00 | 0.00 | 0.00 | 66 | 1008.2 |
| 20260507061354 | 28 | 318 | 0.0 | 0.0 | 0.00 | 0.00 | 0.00 | 67 | 1008.3 |
| 20260507060853 | 28 | 308 | 0.0 | 1.6 | 0.00 | 0.00 | 0.00 | 65 | 1008.2 |
| 20260507060349 | 28 | 231 | 0.0 | 1.6 | 0.00 | 0.00 | 0.00 | 66 | 1008.3 |
| 20260507055846 | 28 | 21 | 0.0 | 0.0 | 0.00 | 0.00 | 0.00 | 65 | 1008.5 |
| 20260507055340 | 28 | 300 | 0.0 | 0.0 | 0.00 | 0.00 | 0.00 | 63 | 1008.7 |
| 20260507054838 | 29 | 353 | 0.0 | 0.0 | 0.00 | 0.00 | 0.00 | 66 | 1008.8 |
| 20260507054334 | 29 | 355 | 0.0 | 0.0 | 0.00 | 0.00 | 0.00 | 65 | 1008.7 |
| 20260507053831 | 28 | 349 | 0.0 | 0.0 | 0.00 | 0.00 | 0.00 | 68 | 1008.8 |
| 20260507053329 | 28 | 44 | 3.2 | 4.8 | 0.00 | 0.00 | 0.00 | 68 | 1008.8 |
| 20260507052828 | 28 | 340 | 1.6 | 3.2 | 0.00 | 0.00 | 0.00 | 70 | 1008.8 |
| 20260507052324 | 28 | 277 | 0.0 | 0.0 | 0.00 | 0.00 | 0.00 | 67 | 1008.8 |
| 20260507051822 | 27 | 324 | 0.0 | 0.0 | 0.00 | 0.00 | 0.00 | 69 | 1009.0 |
| 20260507051319 | 28 | 88 | 0.0 | 0.0 | 0.00 | 0.00 | 0.00 | 70 | 1009.1 |
| 20260507050816 | 28 | 30 | 0.0 | 0.0 | 0.00 | 0.00 | 0.00 | 70 | 1009.0 |
| 20260507050312 | 28 | 325 | 0.0 | 0.0 | 0.00 | 0.00 | 0.00 | 69 | 1008.9 |
| 20260507045809 | 27 | 322 | 0.0 | 0.0 | 0.00 | 0.00 | 0.00 | 71 | 1009.1 |
| 20260507045306 | 27 | 279 | 0.0 | 0.0 | 0.00 | 0.00 | 0.00 | 74 | 1009.2 |
| 20260507044803 | 26 | 151 | 0.0 | 1.6 | 0.00 | 0.00 | 0.00 | 75 | 1009.1 |
| 20260507044259 | 27 | 124 | 1.6 | 4.8 | 0.00 | 0.00 | 0.00 | 74 | 1009.4 |
| 20260507043755 | 26 | 229 | 0.0 | 0.0 | 0.00 | 0.00 | 0.00 | 75 | 1009.1 |
| 20260507043252 | 26 | 321 | 0.0 | 0.0 | 0.00 | 0.00 | 0.00 | 75 | 1009.1 |
| 20260507042748 | 26 | 310 | 0.0 | 0.0 | 0.00 | 0.00 | 0.00 | 76 | 1009.2 |
| 20260507042243 | 25 | 47 | 0.0 | 0.0 | 0.00 | 0.00 | 0.00 | 78 | 1009.4 |
| 20260507041741 | 26 | 205 | 3.2 | 8.0 | 0.00 | 0.00 | 0.00 | 77 | 1009.1 |
| 20260507041237 | 25 | 332 | 0.0 | 0.0 | 0.00 | 0.00 | 0.00 | 78 | 1009.2 |
| 20260507040735 | 26 | 133 | 1.6 | 1.6 | 0.00 | 0.00 | 0.00 | 76 | 1009.3 |
| 20260507040231 | 26 | 322 | 0.0 | 0.0 | 0.00 | 0.00 | 0.00 | 79 | 1009.2 |
| 20260507035727 | 26 | 272 | 0.0 | 0.0 | 0.00 | 0.00 | 0.00 | 78 | 1009.2 |
| 20260507035222 | 26 | 348 | 0.0 | 0.0 | 0.00 | 0.00 | 0.00 | 78 | 1009.3 |
| 20260507034720 | 25 | 144 | 1.6 | 3.2 | 0.00 | 0.00 | 0.00 | 77 | 1009.1 |
| 20260507034217 | 26 | 117 | 6.4 | 8.0 | 0.00 | 0.00 | 0.00 | 77 | 1009.5 |
| 20260507033715 | 25 | 40 | 0.0 | 0.0 | 0.00 | 0.00 | 0.00 | 81 | 1009.1 |
| 20260507033212 | 24 | 326 | 0.0 | 0.0 | 0.00 | 0.00 | 0.00 | 84 | 1009.1 |
| 20260507032710 | 24 | 163 | 0.0 | 0.0 | 0.00 | 0.00 | 0.00 | 84 | 1008.9 |
| 20260507032205 | 23 | 257 | 0.0 | 0.0 | 0.00 | 0.00 | 0.00 | 85 | 1008.9 |
| 20260507031702 | 23 | 62 | 0.0 | 0.0 | 0.00 | 0.00 | 0.00 | 86 | 1008.9 |
| 20260507031159 | 23 | 141 | 0.0 | 1.6 | 0.00 | 0.00 | 0.00 | 86 | 1008.8 |
| 20260507030656 | 24 | 304 | 3.2 | 4.8 | 0.00 | 0.00 | 0.00 | 85 | 1008.9 |
| 20260507030154 | 24 | 135 | 0.0 | 0.0 | 0.00 | 0.00 | 0.00 | 85 | 1008.5 |
| 20260507025651 | 24 | 162 | 0.0 | 0.0 | 0.00 | 0.00 | 0.00 | 86 | 1008.9 |
| 20260507025147 | 24 | 111 | 0.0 | 0.0 | 0.00 | 0.00 | 0.00 | 87 | 1009.0 |
| 20260507024645 | 23 | 267 | 1.6 | 8.0 | 0.00 | 0.00 | 0.00 | 88 | 1008.4 |
| 20260507024143 | 23 | 158 | 0.0 | 1.6 | 0.00 | 0.00 | 0.00 | 89 | 1008.8 |
| 20260507023638 | 23 | 169 | 0.0 | 0.0 | 0.00 | 0.00 | 0.00 | 89 | 1008.2 |
| 20260507023136 | 23 | 327 | 0.0 | 0.0 | 0.00 | 0.00 | 0.00 | 89 | 1008.3 |
| 20260507022632 | 23 | 193 | 0.0 | 0.0 | 0.00 | 0.00 | 0.00 | 88 | 1008.5 |
| 20260507022127 | 23 | 177 | 0.0 | 0.0 | 0.00 | 0.00 | 0.00 | 89 | 1008.4 |
| 20260507021625 | 23 | 103 | 0.0 | 0.0 | 0.00 | 0.00 | 0.00 | 91 | 1008.2 |
| 20260507021120 | 22 | 167 | 4.8 | 8.0 | 0.00 | 0.00 | 0.00 | 91 | 1008.3 |
| 20260507020618 | 22 | 166 | 4.8 | 11.3 | 0.00 | 0.00 | 0.00 | 91 | 1008.3 |
| 20260507020114 | 22 | 1 | 0.0 | 0.0 | 0.00 | 0.00 | 0.00 | 93 | 1008.0 |
| 20260507015613 | 22 | 81 | 0.0 | 0.0 | 0.00 | 0.00 | 0.00 | 93 | 1008.0 |
| 20260507015110 | 22 | 147 | 1.6 | 3.2 | 0.00 | 0.00 | 0.00 | 93 | 1008.1 |
| 20260507014607 | 22 | 122 | 0.0 | 1.6 | 0.00 | 0.00 | 0.00 | 93 | 1008.2 |
| 20260507014102 | 22 | 80 | 1.6 | 3.2 | 0.00 | 0.00 | 0.00 | 94 | 1007.7 |
| 20260507013559 | 22 | 98 | 0.0 | 0.0 | 0.00 | 0.00 | 0.00 | 94 | 1008.0 |
| 20260507013056 | 22 | 17 | 0.0 | 0.0 | 0.00 | 0.00 | 0.00 | 94 | 1007.8 |
| 20260507012554 | 22 | 208 | 0.0 | 0.0 | 0.00 | 0.00 | 0.00 | 94 | 1007.9 |
| 20260507012049 | 22 | 26 | 0.0 | 0.0 | 0.00 | 0.00 | 0.00 | 94 | 1007.8 |
| 20260507011547 | 22 | 157 | 0.0 | 0.0 | 0.00 | 0.00 | 0.00 | 95 | 1007.6 |
| 20260507011043 | 22 | 111 | 0.0 | 0.0 | 0.00 | 0.00 | 0.00 | 95 | 1007.6 |
| 20260507010538 | 22 | 321 | 0.0 | 0.0 | 0.00 | 0.00 | 0.00 | 95 | 1007.7 |
| 20260507010034 | 22 | 315 | 0.0 | 0.0 | 0.00 | 0.00 | 0.00 | 95 | 1007.7 |
| 20260507005532 | 22 | 302 | 0.0 | 0.0 | 0.00 | 0.00 | 0.00 | 95 | 1007.7 |
| 20260507005028 | 22 | 119 | 0.0 | 0.0 | 0.00 | 0.00 | 0.00 | 95 | 1007.7 |
| 20260507004525 | 22 | 170 | 4.8 | 8.0 | 0.00 | 0.00 | 0.00 | 95 | 1007.6 |
| 20260507004023 | 22 | 140 | 0.0 | 0.0 | 0.00 | 0.00 | 0.00 | 95 | 1007.5 |
| 20260507003518 | 22 | 143 | 8.0 | 9.7 | 0.00 | 0.00 | 0.00 | 94 | 1007.2 |
| 20260507003013 | 22 | 149 | 0.0 | 0.0 | 0.00 | 0.00 | 0.00 | 94 | 1007.1 |
| 20260507002510 | 22 | 136 | 0.0 | 0.0 | 0.00 | 0.00 | 0.00 | 94 | 1007.2 |
| 20260507002006 | 22 | 165 | 0.0 | 0.0 | 0.00 | 0.00 | 0.00 | 94 | 1007.0 |
| 20260507001503 | 22 | 192 | 0.0 | 0.0 | 0.00 | 0.00 | 0.00 | 94 | 1007.0 |
| 20260507001000 | 22 | 91 | 0.0 | 0.0 | 0.00 | 0.00 | 0.00 | 93 | 1006.9 |
| 20260507000456 | 22 | 156 | 0.0 | 0.0 | 0.00 | 0.00 | 0.00 | 93 | 1006.7 |
| 20260506235952 | 22 | 115 | 0.0 | 0.0 | 0.00 | 0.00 | 0.00 | 93 | 1006.7 |
| 20260506235450 | 22 | 327 | 0.0 | 0.0 | 0.00 | 0.00 | 0.00 | 93 | 1006.8 |
| 20260506234945 | 22 | 188 | 0.0 | 0.0 | 0.00 | 0.00 | 0.00 | 93 | 1006.8 |
| 20260506234443 | 22 | 184 | 0.0 | 0.0 | 0.00 | 0.00 | 0.00 | 93 | 1006.8 |
| 20260506233940 | 22 | 94 | 0.0 | 0.0 | 0.00 | 0.00 | 0.00 | 93 | 1007.0 |
| 20260506233437 | 22 | 187 | 3.2 | 4.8 | 0.00 | 0.00 | 0.00 | 93 | 1006.6 |
| 20260506232933 | 22 | 104 | 0.0 | 0.0 | 0.00 | 0.00 | 0.00 | 93 | 1006.5 |
| 20260506232429 | 22 | 144 | 0.0 | 0.0 | 0.00 | 0.00 | 0.00 | 93 | 1006.5 |
| 20260506231925 | 22 | 207 | 0.0 | 0.0 | 0.00 | 0.00 | 0.00 | 93 | 1006.5 |
| 20260506231423 | 22 | 203 | 0.0 | 0.0 | 0.00 | 0.00 | 0.00 | 93 | 1006.4 |
| 20260506230920 | 22 | 315 | 0.0 | 0.0 | 0.00 | 0.00 | 0.00 | 93 | 1006.4 |
| 20260506230416 | 22 | 147 | 3.2 | 4.8 | 0.00 | 0.00 | 0.00 | 93 | 1006.4 |
| 20260506225913 | 22 | 111 | 0.0 | 0.0 | 0.00 | 0.00 | 0.00 | 93 | 1006.0 |